Regional Weather Roundup
Issued by NWS

Home | Current Version | Previous Version | Graphics & Text | Print | Product List | Glossary On
Versions: 1 2 3 4 5 6 7 8 9 10 11 12 13 14 15 16 17 18 19 20 21 22 23 24 25 26 27 28 29 30 31 32 33 34 35 36 37 38 39 40 41 42 43 44 45 46 47 48 49 50
000
ASUS43 KOAX 191710
RWRNE

WEATHER ROUNDUP FOR NEBRASKA
NATIONAL WEATHER SERVICE OMAHA NE
1100 AM CST FRI DEC 19 2014

NOTES: SATELLITE DATA IS BEING USED TO AUGMENT CLOUD COVER ABOVE
       12000 FEET.
       "FAIR" INDICATES FEW OR NO CLOUDS BELOW 12,000 FEET WITH NO
       SIGNIFICANT WEATHER AND/OR OBSTRUCTIONS TO VISIBILITY.

  * THESE STATIONS DO NOT REPORT WEATHER SUCH AS RAIN...SNOW OR FOG.

NEZ001>004-019>022-054>056-191800-
NEBRASKA PANHANDLE

CITY           SKY/WX    TMP DP  RH WIND       PRES   REMARKS
SCOTTSBLUFF    SUNNY     19  17  92 N5        30.06S WCI  12
ALLIANCE       SUNNY     19  14  81 W6        30.03S WCI  11
CHADRON        SUNNY     31  19  61 W10       30.04R WCI  22
KIMBALL        SUNNY     38  21  49 W20       30.04S WCI  28
SIDNEY         SUNNY     32  19  58 W8        30.07S WCI  25
$$

NEZ057>060-069>072-079>082-191800-
SOUTHWEST NEBRASKA

CITY           SKY/WX    TMP DP  RH WIND       PRES   REMARKS
NORTH PLATTE   SUNNY     28  23  81 W7        30.09F WCI  21
IMPERIAL       SUNNY     31  25  78 W6        30.10F WCI  25
LEXINGTON      CLOUDY    27  26  96 S5        30.12F FOG     WCI  21
MCCOOK         SUNNY     27  24  89 W5        30.13S WCI  22
OGALLALA       SUNNY     24  20  83 W12       30.09S WCI  13
$$

NEZ005>010-023>029-035>040-094-191800-
NORTH CENTRAL NEBRASKA

CITY           SKY/WX    TMP DP  RH WIND       PRES   REMARKS
VALENTINE      SUNNY     26  20  77 SW10      30.02F WCI  16
AINSWORTH      MOSUNNY   24  20  83 SW5       30.03F WCI  18
BROKEN BOW     SUNNY     26  25  96 SE5       30.08F WCI  20
O`NEILL        FOG       26  26 100 S7        30.10S VSB 1/2 WCI  19
THEDFORD       SUNNY     31  25  80 W5        30.05F WCI  26
$$

NEZ041-046>049-061>064-073>077-083>087-191800-
SOUTH CENTRAL NEBRASKA

CITY           SKY/WX    TMP DP  RH WIND       PRES   REMARKS
GRAND ISLAND   CLOUDY    30  28  92 SW10      30.17R FOG     WCI  21
AURORA         CLOUDY    32  30  92 S9        30.17F WCI  24
HASTINGS       CLOUDY    31  28  89 SW7       30.16F FOG     WCI  24
HEBRON         CLOUDY    32  29  87 S8        30.22S FOG     WCI  25
HOLDREGE       FOG       28  27  96 S7        30.15R VSB 1/4 WCI  21
KEARNEY *      CLOUDY    27  25  93 S9        30.15S VSB 3/4 WCI  17
YORK           CLOUDY    32  28  86 S9        30.19S WCI  24
$$

NEZ011>018-030>034-042>045-191800-
NORTHEAST NEBRASKA

CITY           SKY/WX    TMP DP  RH WIND       PRES   REMARKS
NORFOLK        CLOUDY    31  28  89 S12       30.15S WCI  22
ALBION         CLOUDY    28  26  91 SW10      30.15S FOG     WCI  19
BLAIR          CLOUDY    33  30  89 S9        30.21F FOG     WCI  25
COLUMBUS *     CLOUDY    32  25  74 S8        30.19F WCI  25
FREMONT        CLOUDY    33  31  91 SE6       30.21F FOG     WCI  28
TEKAMAH        CLOUDY    34  30  85 S10       30.22F FOG     WCI  26
WAYNE          CLOUDY    31  28  86 S13       30.17S WCI  22
$$

NEZ050>053-065>068-078-088>093-191800-
SOUTHEAST NEBRASKA

CITY           SKY/WX    TMP DP  RH WIND       PRES   REMARKS
LINCOLN        CLOUDY    33  28  81 S9        30.24S WCI  25
OMAHA EPPLEY   CLOUDY    33  29  85 S10       30.25S FOG     WCI  25
BEATRICE       CLOUDY    32  29  90 S6        30.24S FOG     WCI  26
FALLS CITY     CLOUDY    29  26  89 S7        30.28R WCI  22
NEBRASKA CITY  CLOUDY    31  30  96 S8        30.25F WCI  24
PLATTSMOUTH    CLOUDY    32  29  90 S9        30.24S FOG     WCI  24
$$

NEZ044-045-051>053-067-191800-
OMAHA AREA

CITY           SKY/WX    TMP DP  RH WIND       PRES   REMARKS
OMAHA EPPLEY   CLOUDY    33  29  85 S10       30.25S FOG     WCI  25
BLAIR          CLOUDY    33  30  89 S9        30.21F FOG     WCI  25
FREMONT        CLOUDY    33  31  91 SE6       30.21F FOG     WCI  28
MILLARD        CLOUDY    33  30  87 S8        30.23F FOG     WCI  26
OFFUTT AFB     CLOUDY    32  29  90 SE5       30.24S WCI  28
PLATTSMOUTH    CLOUDY    32  29  90 S9        30.24S FOG     WCI  24
WAHOO          CLOUDY    33  29  86 S9        30.22S FOG     WCI  25
$$



USA.gov is the U.S. government's official web portal to all federal, state and local government web resources and services.